Weather in Peshkovo

Russia / Rostov Oblast     47°01′04″N   39°23′30″E
temp.,
°C
wind,
m/s
gust,
m/s
humid.,
%
clouds,
%
prec.,
mm/h
press.,
hPa
HPBL,
m
31 july, sat
sat3100:00+23wnw22665 0.0 100926
03:00+22wnw007173 0.0 100911
06:00+22sw127621 0.7 100935
09:00+28ssw335493 0.7 1009634
12:00+33sw253649 0.0 10092526
15:00+31wnw554388 0.1 1008718
18:00+30wnw334213 0.0 1009463
21:00+25wnw347146 0.1 100958
1 august, sun
sun100:00+25wnw00699 0.0 101011
03:00+24n22605 0.0 100913
06:00+24nne225729 0.0 101020
09:00+31e333519 0.0 1011524
12:00+35ese342155 0.0 10102258
15:00+37ene23187 0.0 10093553
18:00+36ne44182 0.0 10082505
21:00+30ne492722 0.0 1009146
2 august, mon
mon200:00+28ene3527100 0.0 100994
03:00+27e353099 0.0 101097
06:00+27ene343099 0.0 101075
09:00+34ese34221 0.0 1010438
12:00+38e32162 0.0 10103777
15:00+39e42144 0.0 10084042
18:00+38e43160 0.0 10082332
21:00+29se11290 0.0 100820
3 august, tue
tue300:00+28wsw233749 0.0 100924
03:00+26wnw22462 0.0 100820
06:00+26wnw22460 0.0 100929
09:00+33wnw33280 0.0 1009577
12:00+36wnw66250 0.0 10091583
15:00+37w66210 0.0 10091911
18:00+33w7103423 0.0 1010706
21:00+28nw48515 0.0 1011188
4 august, wed
wed400:00+25nnw49575 0.0 1013259
03:00+23nnw375624 0.3 1014183
06:00+21nne476959 0.8 1015175
09:00+27nne44391 0.8 1016912
12:00+32nnw43260 0.0 10151877
15:00+33nw542143 0.0 10142343
18:00+31nnw34254 0.0 10141138
21:00+26ne48320 0.0 1014125